Tracking 19146 objects as of 24-Apr-2018
HD Live streaming from Space Station
objects crossing your sky now

NIMBUS 2 DEB

Track NIMBUS 2 DEB now!
10-day predictions


NORAD ID: 39294
Int'l Code: 1966-040BC
Perigee: 1,081.3 km
Apogee: 1,165.1 km
Inclination: 100.4 °
Period: 107.6 minutes
Semi major axis: 7494 km
RCS: 0.0217 m2 (small)
Launch date: May 15, 1966
Source: United States (US)
Launch site: AIR FORCE WESTERN TEST RANGE (AFWTR)

Note: This is SATELLITE DEBRIS
aabbcc
Your satellite tracking list
Your tracking list is empty




NASA's NSSDC Master Catalog

Two Line Element Set (TLE):
1 39294U 66040BC  18113.85842299 +.00000456 +00000-0 +94227-3 0  9996
2 39294 100.4177 251.3567 0055888 074.0909 286.6366 13.38176099220683
Source of the keplerian elements: AFSPC